MSC Orchestra — 3EJF3 — position and weather

sailwx.info

Track history (hours):
 
Tides and Currents Weather Stations Pressure Air Temp Water Temp Dewpoint Dewpoint Depression Visibility Wind Speed Wind Dir Waves Ship Positions

MSC Orchestra

Last reported at 2014-Oct-18 14:13 UTC. Time now 2014-Oct-20 11:14 UTC.
Position N 41°02' E 028°59'.

Length 294 m; draft 7.8 m.

Type: Ship. MMSI: 372497000.

Date/timePositionNaut miles runAvg speedWind from/ knotsBaromVisibWave heightAir tempDewpointWater temp
2014-Oct-18 14:13N 41°02' E 028°59'0 0.0
2014-Oct-18 13:19N 41°02' E 028°59'0 0.0
2014-Oct-18 10:30N 41°02' E 028°59'0 0.0
2014-Oct-18 09:11N 41°02' E 028°59'14210.1
2014-Oct-17 19:13N 40°01' E 026°10'1319.6
2014-Oct-17 18:33N 39°54' E 025°56'2321.8
2014-Oct-17 17:31N 39°32' E 025°49'54 3.3
2014-Oct-17 01:18N 38°39' E 025°41'2620.8
2014-Oct-17 00:04N 38°25' E 025°13'4121.2
2014-Oct-16 22:09N 37°56' E 024°37'1321.7
2014-Oct-16 21:33N 37°44' E 024°31'2221.4
2014-Oct-16 20:33N 37°25' E 024°17'2121.5
2014-Oct-16 19:33N 37°09' E 024°01'2121.3
2014-Oct-16 18:33N 36°52' E 023°44'2221.7
2014-Oct-16 17:33N 36°35' E 023°27'2519.6
2014-Oct-16 16:16N 36°25' E 022°58'1622.3
2014-Oct-16 15:33N 36°22' E 022°39'  
2014-Oct-11 23:33N 37°27' E 024°01'7915.6
2014-Oct-11 18:30N 38°45' E 024°10'249 6.9
2014-Oct-10 06:32N 40°55' E 028°47'1913.1
2014-Oct-10 05:07N 41°08' E 029°04'  
Track history (hours):
 
Tides and Currents Weather Stations Pressure Air Temp Water Temp Dewpoint Dewpoint Depression Visibility Wind Speed Wind Dir Waves Ship Positions

MSC Orchestra

Last reported at 2014-Oct-18 14:13 UTC. Time now 2014-Oct-20 11:14 UTC.
Position N 41°02' E 028°59'.

Length 294 m; draft 7.8 m.

Type: Ship. MMSI: 372497000.

Date/timePositionNaut miles runAvg speedWind from/ knotsBaromVisibWave heightAir tempDewpointWater temp
2014-Oct-18 14:13N 41°02' E 028°59'0 0.0
2014-Oct-18 13:19N 41°02' E 028°59'0 0.0
2014-Oct-18 10:30N 41°02' E 028°59'0 0.0
2014-Oct-18 09:11N 41°02' E 028°59'14210.1
2014-Oct-17 19:13N 40°01' E 026°10'1319.6
2014-Oct-17 18:33N 39°54' E 025°56'2321.8
2014-Oct-17 17:31N 39°32' E 025°49'54 3.3
2014-Oct-17 01:18N 38°39' E 025°41'2620.8
2014-Oct-17 00:04N 38°25' E 025°13'4121.2
2014-Oct-16 22:09N 37°56' E 024°37'1321.7
2014-Oct-16 21:33N 37°44' E 024°31'2221.4
2014-Oct-16 20:33N 37°25' E 024°17'2121.5
2014-Oct-16 19:33N 37°09' E 024°01'2121.3
2014-Oct-16 18:33N 36°52' E 023°44'2221.7
2014-Oct-16 17:33N 36°35' E 023°27'2519.6
2014-Oct-16 16:16N 36°25' E 022°58'1622.3
2014-Oct-16 15:33N 36°22' E 022°39'  
2014-Oct-11 23:33N 37°27' E 024°01'7915.6
2014-Oct-11 18:30N 38°45' E 024°10'249 6.9
2014-Oct-10 06:32N 40°55' E 028°47'1913.1
2014-Oct-10 05:07N 41°08' E 029°04'  

Dump ship's entire track history